Regional Weather Roundup
Issued by NWS

Home | Current Version | Previous Version | Graphics & Text | Print | Product List | Glossary On
Versions: 1 2 3 4 5 6 7 8 9 10 11 12 13 14 15 16 17 18 19 20 21 22 23 24 25 26 27 28 29 30 31 32 33 34 35 36 37 38 39 40 41 42 43 44 45 46 47 48 49 50
718
ASUS45 KSLC 212310
RWRUT

UTAH REGIONAL WEATHER ROUNDUP
NATIONAL WEATHER SERVICE SALT LAKE CITY UT
500 PM MDT MON AUG 21 2017

UTZ001>011-023>025-220000-

NORTHERN UTAH

CITY           SKY/WX    TMP DP  RH WIND       PRES   REMARKS
BRIGHAM CITY   SUNNY     89  31  12 S3        30.11F
DUGWAY         MOSUNNY   91  34  13 SW6G13    30.09
HILL AFB       SUNNY     87  41  19 N6        30.15S
LOGAN          SUNNY     89  34  14 VRB6      30.12F
OGDEN          SUNNY     89  41  18 VRB7      30.11F
SALT LAKE CITY MOSUNNY   92  44  19 NW5       30.09S
TOOELE VALLEY  MOSUNNY   86  50  28 N12       30.11S
WENDOVER       SUNNY     90  34  13 SE10      30.10F
HEBER CITY     MOSUNNY   82  36  18 CALM      30.17F
WEST JORDAN    MOSUNNY   87  57  35 NW15      30.13S

$$

UTZ011>015-024>027-220000-

CENTRAL/NORTHEAST UTAH

CITY           SKY/WX    TMP DP  RH WIND       PRES   REMARKS
PROVO AIRPORT  MOSUNNY   86  48  26 VRB6      30.14
MOAB/CANYONLAN SUNNY     92  36  14 VRB3      30.05F
DELTA          MOSUNNY   88  36  15 W7        30.13S
PRICE          CLOUDY    84  34  16 NE9       30.20R
ROOSEVELT      MOSUNNY   84  36  17 N12G17    30.17S
VERNAL         SUNNY     88  40  18 NW17      30.15F

$$

UTZ013>016-019>022-027-220000-

SOUTHERN UTAH

CITY           SKY/WX    TMP DP  RH WIND       PRES   REMARKS
BRYCE CANYON   NOT AVBL
CEDAR CITY     MOSUNNY   83  44  25 VRB3      30.22S
MILFORD        PTSUNNY   87  42  20 S15       30.16F
ST GEORGE      PTCLDY    90  50  25 W15       30.05F
HANKSVILLE     PTSUNNY   95  36  12 S8        30.08S HX  90
BLANDING       MOSUNNY   83  44  24 W6        30.24S

$$

REGIONAL REPORTS     COLORADO/ARIZONA

CITY           SKY/WX    TMP DP  RH WIND       PRES   REMARKS
CRAIG, CO      SUNNY     84  27  12 CALM      30.21S
GRAND JUNCTION MOSUNNY   92  37  14 N9G25     30.08S
RIFLE, CO      SUNNY     84  43  23 E17G26    30.14R
MONTROSE, CO   SUNNY     87  38  17 W12       30.16S
CORTEZ, CO     CLOUDY    86  47  25 S10       30.17F
COLORADO CITY    N/A     86  48  26 W12G17    30.21F
PAGE, AZ       MOSUNNY   92  41  17 VRB5G20   30.07F
GRAND CANYON   CLOUDY    64  57  78 NE3       30.32F
KINGMAN, AZ    CLOUDY    76  57  51 E13       30.13F
FLAGSTAFF, AZ  CLOUDY    68  52  56 W7        30.33R

$$

REGIONAL REPORTS    NEVADA/IDAHO/WYOMING

CITY           SKY/WX    TMP DP  RH WIND       PRES   REMARKS
LAS VEGAS, NV  PTSUNNY   92  53  26 E9        30.01F
ELY, NY        PTSUNNY   84  30  14 MISG      30.22F
ELKO, NV       MOSUNNY   92  27   9 N5        30.13F
POCATELLO, ID  SUNNY     84  29  13 VRB7      30.17S
BURLEY, ID     SUNNY     81  37  20 W8        30.13F
FORT BRIDGER,    N/A     81  29  14 NW17      30.31S
EVANSTON, WY   CLOUDY    78  34  20 N21G33    30.31S
ROCK SPRINGS,  MOSUNNY   82  26  13 W9        30.26S
KEMMERER, WY     N/A    N/A N/A N/A W14G21    30.31F

$$




USA.gov is the U.S. government's official web portal to all federal, state and local government web resources and services.